This demonstration page uses our WeatherBlox Daily Observations layout. Learn more.

40.92945, -100.16068

Hourly Observations for March 20, 2015

Temp ( °F °C ) Dew Point ( °F °C ) Humidity (%) Winds ( mph kmh ) Pressure ( in mb ) Visibility ( mi km ) Precip ( " mm )
12:15 am 00:15 Clear 35 1.6 20 -6.5 55 55 W 5 7 30.18 1022 10 16.0934 N/A
12:35 am 00:35 Clear 32 0 19 -7.3 58 58 WNW 5 7 30.21 1023 10 16.0934 N/A
12:55 am 00:55 Clear 29 -1.7 19 -7.2 66 66 WNW 6 9 30.24 1024 10 16.0934 N/A
1:15 am 01:15 Clear 30 -1 20 -6.4 67 67 WNW 5 7 30.21 1023 10 16.0934 N/A
1:35 am 01:35 Clear 29 -1.5 19 -7.1 66 66 WNW 5 7 30.21 1023 10 16.0934 N/A
1:55 am 01:55 Clear 28 -2.2 19 -7.3 68 68 NW 5 7 30.27 1025 10 16.0934 N/A
2:15 am 02:15 Clear 26 -3.1 18 -7.9 70 70 NW 5 7 30.27 1025 10 16.0934 N/A
2:35 am 02:35 Clear 27 -3 19 -7.3 73 73 NNW 5 7 30.27 1025 10 16.0934 N/A
2:55 am 02:55 Clear 26 -3.1 19 -7.5 72 72 NNW 5 7 30.27 1025 10 16.0934 N/A
3:15 am 03:15 Clear 26 -3.4 19 -7.3 75 75 NNW 3 6 30.27 1025 10 16.0934 N/A
3:35 am 03:35 Clear 26 -3.4 19 -7 76 76 WNW 6 9 30.27 1025 10 16.0934 N/A
3:55 am 03:55 Clear 26 -3.6 19 -7.1 77 77 WNW 5 7 30.24 1024 10 16.0934 N/A
4:15 am 04:15 Clear 26 -3.5 19 -7 77 77 W 6 9 30.24 1024 10 16.0934 N/A
4:35 am 04:35 Clear 26 -3.1 20 -6.6 77 77 W 6 9 30.24 1024 10 16.0934 N/A
4:55 am 04:55 Clear 28 -2.4 21 -6 77 77 W 5 7 30.24 1024 10 16.0934 N/A
5:15 am 05:15 Clear 24 -4.4 19 -7.4 80 80 Calm 30.24 1024 10 16.0934 N/A
5:35 am 05:35 Clear 24 -4.3 19 -7.2 80 80 WNW 3 6 30.24 1024 10 16.0934 N/A
5:55 am 05:55 Clear 24 -4.4 20 -6.9 83 83 NW 3 6 30.24 1024 7 11.26538 N/A
6:15 am 06:15 Clear 23 -5.1 18 -7.6 83 83 NW 5 7 30.27 1025 10 16.0934 N/A
6:35 am 06:35 Clear 23 -5 18 -7.7 82 82 NW 6 9 30.3 1026 10 16.0934 N/A
6:55 am 06:55 Clear 23 -5 19 -7.5 83 83 NW 8 13 30.3 1026 10 16.0934 N/A
7:15 am 07:15 Clear 25 -4 20 -6.8 81 81 NW 8 13 30.27 1025 10 16.0934 N/A
7:35 am 07:35 Clear 25 -3.9 20 -6.7 81 81 WNW 6 9 30.27 1025 10 16.0934 N/A
7:55 am 07:55 Sunny 24 -4.5 19 -7 83 83 NW 6 9 30.27 1025 10 16.0934 N/A
8:15 am 08:15 Hazy 25 -4.1 20 -6.6 83 83 WNW 5 7 30.27 1025 5 8.0467 N/A
8:35 am 08:35 Sunny 28 -2.2 22 -5.5 78 78 Calm 30.27 1025 7 11.26538 N/A
8:55 am 08:55 Sunny 32 -0.2 24 -4.7 72 72 W 5 7 30.24 1024 10 16.0934 N/A
9:15 am 09:15 Sunny 36 2 26 -3.4 68 68 Calm 30.21 1023 10 16.0934 N/A
9:35 am 09:35 Sunny 40 4.2 27 -2.7 61 61 Calm 30.21 1023 10 16.0934 N/A
9:55 am 09:55 Sunny 43 6.1 28 -2.1 56 56 Calm 30.18 1022 10 16.0934 N/A
10:15 am 10:15 Sunny 50 10.1 29 -1.9 43 43 SW 6 9 30.15 1021 10 16.0934 N/A
10:35 am 10:35 Sunny 57 14.1 28 -2.3 32 32 SW 10 17 30.12 1020 10 16.0934 N/A
10:55 am 10:55 Sunny 60 15.5 30 -1.3 32 32 SW 12 19 30.09 1019 10 16.0934 N/A
11:15 am 11:15 Sunny 61 16.2 30 -1.1 31 31 WSW 12 19 30.09 1019 10 16.0934 N/A
11:35 am 11:35 Sunny 63 17 31 -0.8 30 30 WSW 10 17 30.06 1018 10 16.0934 N/A
11:55 am 11:55 Sunny 65 18.3 31 -0.6 28 28 W 16 26 30.03 1017 10 16.0934 N/A
12:15 pm 12:15 Sunny 67 19.5 29 -1.7 24 24 WSW 20 31 30.03 1017 10 16.0934 N/A
12:35 pm 12:35 Sunny 67 19.6 28 -2.2 23 23 W 18 30 30.03 1017 10 16.0934 N/A
12:55 pm 12:55 Sunny 68 20.1 28 -2 23 23 W 16 26 30.03 1017 10 16.0934 N/A
1:15 pm 13:15 Sunny 69 20.8 28 -2 22 22 WSW 15 24 29.97 1015 10 16.0934 N/A
1:35 pm 13:35 Sunny 71 21.6 26 -3.6 18 18 W 15 24 29.97 1015 10 16.0934 N/A
1:55 pm 13:55 Sunny 71 21.8 24 -4.3 17 17 W 20 31 29.97 1015 10 16.0934 N/A
2:15 pm 14:15 Sunny 72 22.1 22 -5.3 16 16 W 18 30 29.94 1014 10 16.0934 N/A
2:35 pm 14:35 Sunny 73 22.8 22 -5.7 14 14 WSW 12 19 29.94 1014 10 16.0934 N/A
2:55 pm 14:55 Sunny 74 23.2 22 -5.4 14 14 W 15 24 29.94 1014 10 16.0934 N/A
3:15 pm 15:15 Sunny 74 23.4 20 -6.6 13 13 W 13 20 29.94 1014 10 16.0934 N/A
3:35 pm 15:35 Sunny 75 24 20 -6.5 13 13 WSW 17 28 29.91 1013 10 16.0934 N/A
3:55 pm 15:55 Sunny 75 24 20 -6.6 12 12 WSW 15 24 29.91 1013 10 16.0934 N/A
4:15 pm 16:15 Sunny 75 24 19 -7.3 12 12 WSW 13 20 29.91 1013 10 16.0934 N/A
4:35 pm 16:35 Sunny 76 24.5 19 -7.5 11 11 WSW 13 20 29.91 1013 10 16.0934 N/A
4:55 pm 16:55 Sunny 76 24.3 18 -7.8 11 11 WSW 10 17 29.91 1013 10 16.0934 N/A
5:15 pm 17:15 Sunny 75 24.1 17 -8.2 11 11 WSW 8 13 29.91 1013 10 16.0934 N/A
5:35 pm 17:35 Sunny 75 24.1 17 -8.4 11 11 WSW 10 17 29.91 1013 10 16.0934 N/A
5:55 pm 17:55 Sunny 76 24.3 18 -8 11 11 W 13 20 29.91 1013 10 16.0934 N/A
6:15 pm 18:15 Sunny 75 24 17 -8.3 11 11 WSW 10 17 29.91 1013 10 16.0934 N/A
6:35 pm 18:35 Sunny 75 23.7 17 -8.1 11 11 WSW 12 19 29.91 1013 10 16.0934 N/A
6:55 pm 18:55 Sunny 73 22.9 17 -8.3 12 12 WSW 7 11 29.94 1014 10 16.0934 N/A
7:15 pm 19:15 Sunny 71 21.6 18 -8 13 13 WSW 8 13 29.94 1014 10 16.0934 N/A
7:35 pm 19:35 Sunny 66 18.7 17 -8.4 15 15 SW 8 13 29.97 1015 10 16.0934 N/A
7:55 pm 19:55 Clear 61 16.1 17 -8.6 18 18 SW 7 11 30 1016 10 16.0934 N/A
8:15 pm 20:15 Clear 60 15.5 17 -8.3 19 19 SW 8 13 30 1016 10 16.0934 N/A
8:35 pm 20:35 Clear 57 13.7 17 -8.4 21 21 SW 10 17 30 1016 10 16.0934 N/A
8:55 pm 20:55 Clear 57 13.9 18 -7.6 22 22 SW 10 17 30 1016 10 16.0934 N/A
9:15 pm 21:15 Clear 56 13.6 19 -7.5 23 23 SW 9 15 30 1016 10 16.0934 N/A
9:35 pm 21:35 Clear 53 11.7 18 -8 25 25 SW 8 13 30.03 1017 10 16.0934 N/A
9:55 pm 21:55 Clear 53 11.8 17 -8.3 24 24 WSW 3 6 30.03 1017 10 16.0934 N/A
10:15 pm 22:15 Clear 54 12.2 19 -7.3 25 25 NNW 10 17 30.03 1017 10 16.0934 N/A
10:35 pm 22:35 Clear 55 12.7 19 -7.4 24 24 W 5 7 30.06 1018 10 16.0934 N/A
10:55 pm 22:55 Clear 50 10.2 19 -7.2 29 29 W 5 7 30.09 1019 10 16.0934 N/A
11:15 pm 23:15 Clear 44 6.7 19 -7.2 37 37 N 6 9 30.12 1020 10 16.0934 N/A
11:35 pm 23:35 Clear 46 7.9 20 -6.9 35 35 ENE 6 9 30.09 1019 10 16.0934 N/A
11:55 pm 23:55 Clear 50 9.9 19 -7.1 30 30 Calm 30.09 1019 10 16.0934 N/A

Powered by AerisWeather